When you browse on this site, cookies collect data to enhance your experience and personalize the content and advertising you see.
Visit our Privacy Policy to learn more. By continuing to use the site, you agree to this use of cookies and data.
  • In Austria
  • List of Countries
  • For 7 days
  • Water Temperature
  • Weather Map
  • News
  • Weather Widgets
  • user-avatar
    Login

    Hourly Weather Encamp

    Today, 5 December, Thursday

    Time Temperature Precipitation Wind Pressure Humidity
    00:00 +3°C° 0 mm 1 mps 620 mmHg 97%
    01:00 +2°C° 0.5 mm 1 mps 620 mmHg 97%
    02:00 +1°C° 0.5 mm 2 mps 620 mmHg 97%
    03:00 +1°C° 0.5 mm 2 mps 620 mmHg 97%
    04:00 +1°C° 0.2 mm 2 mps 621 mmHg 96%
    05:00 +2°C° 0.2 mm 2 mps 621 mmHg 96%
    06:00 +1°C° 0 mm 2 mps 622 mmHg 97%
    07:00 +2°C° 0.3 mm 2 mps 622 mmHg 96%
    08:00 +2°C° 0.3 mm 2 mps 622 mmHg 95%
    09:00 +2°C° 0.3 mm 2 mps 623 mmHg 95%
    10:00 +4°C° 0.1 mm 1 mps 623 mmHg 93%
    11:00 +4°C° 0.1 mm 1 mps 624 mmHg 90%
    12:00 +5°C° 0.1 mm 1 mps 624 mmHg 88%
    13:00 +5°C° 0.1 mm 1 mps 624 mmHg 89%
    14:00 +4°C° 0.1 mm 1 mps 624 mmHg 91%
    15:00 +4°C° 0.1 mm 1 mps 624 mmHg 92%
    16:00 +4°C° 0 mm 1 mps 624 mmHg 93%
    17:00 +3°C° 0 mm 1 mps 624 mmHg 94%
    18:00 +2°C° 0 mm 1 mps 624 mmHg 95%
    19:00 +2°C° 0 mm 1 mps 624 mmHg 94%
    20:00 +1°C° 0 mm 1 mps 624 mmHg 93%
    21:00 +1°C° 0 mm 1 mps 624 mmHg 93%
    22:00 +1°C° 0 mm 1 mps 624 mmHg 92%
    23:00 +1°C° 0 mm 1 mps 624 mmHg 91%

    Tomorrow, 6 December, Friday

    Time Temperature Precipitation Wind Pressure Humidity
    00:00 0°C° 0 mm 1 mps 624 mmHg 90%
    01:00 0°C° 0 mm 1 mps 624 mmHg 90%
    02:00 0°C° 0 mm 1 mps 624 mmHg 89%
    03:00 0°C° 0 mm 1 mps 623 mmHg 88%
    04:00 0°C° 0 mm 1 mps 623 mmHg 88%
    05:00 0°C° 0 mm 1 mps 624 mmHg 88%
    06:00 0°C° 0 mm 1 mps 624 mmHg 88%
    07:00 +1°C° 0 mm 1 mps 624 mmHg 86%
    08:00 +1°C° 0 mm 0 mps 625 mmHg 85%
    09:00 +3°C° 0 mm 0 mps 626 mmHg 83%
    10:00 +4°C° 0 mm 0 mps 626 mmHg 80%
    11:00 +6°C° 0 mm 1 mps 626 mmHg 78%
    12:00 +7°C° 0 mm 1 mps 626 mmHg 75%
    13:00 +6°C° 0 mm 1 mps 626 mmHg 78%
    14:00 +6°C° 0 mm 1 mps 625 mmHg 80%
    15:00 +5°C° 0 mm 1 mps 624 mmHg 83%
    16:00 +4°C° 0 mm 1 mps 624 mmHg 85%
    17:00 +3°C° 0 mm 1 mps 624 mmHg 88%
    18:00 +1°C° 0 mm 1 mps 624 mmHg 91%
    19:00 +1°C° 0 mm 1 mps 624 mmHg 90%
    20:00 +1°C° 0 mm 1 mps 624 mmHg 90%
    21:00 +1°C° 0 mm 1 mps 624 mmHg 89%
    22:00 +1°C° 0 mm 1 mps 624 mmHg 89%
    23:00 +1°C° 0 mm 1 mps 624 mmHg 88%

    Day after tomorrow, 7 December, Saturday

    Time Temperature Precipitation Wind Pressure Humidity
    00:00 +1°C° 0 mm 1 mps 624 mmHg 88%
    01:00 +1°C° 0 mm 1 mps 624 mmHg 87%
    02:00 +1°C° 0 mm 1 mps 624 mmHg 87%
    03:00 0°C° 0 mm 1 mps 623 mmHg 87%
    04:00 0°C° 0 mm 1 mps 624 mmHg 86%
    05:00 0°C° 0 mm 1 mps 624 mmHg 85%
    06:00 0°C° 0 mm 1 mps 624 mmHg 85%
    07:00 +2°C° 0 mm 1 mps 625 mmHg 82%
    08:00 +3°C° 0 mm 1 mps 625 mmHg 79%
    09:00 +4°C° 0 mm 1 mps 626 mmHg 76%
    10:00 +5°C° 0 mm 1 mps 626 mmHg 73%
    11:00 +6°C° 0 mm 1 mps 627 mmHg 70%
    12:00 +7°C° 0 mm 1 mps 627 mmHg 67%
    13:00 +7°C° 0 mm 1 mps 626 mmHg 72%
    14:00 +6°C° 0 mm 1 mps 626 mmHg 76%
    15:00 +6°C° 0 mm 1 mps 625 mmHg 81%
    16:00 +4°C° 0 mm 1 mps 625 mmHg 85%
    17:00 +3°C° 0 mm 1 mps 625 mmHg 88%
    18:00 +2°C° 0 mm 1 mps 624 mmHg 92%
    19:00 +1°C° 0 mm 1 mps 624 mmHg 89%
    20:00 +1°C° 0 mm 1 mps 625 mmHg 85%
    21:00 +1°C° 0 mm 1 mps 625 mmHg 81%
    22:00 +1°C° 0 mm 1 mps 625 mmHg 78%
    23:00 +1°C° 0 mm 1 mps 625 mmHg 75%

    8 December, Sunday

    Time Temperature Precipitation Wind Pressure Humidity
    00:00 +1°C° 0 mm 1 mps 625 mmHg 72%
    01:00 +1°C° 0 mm 1 mps 624 mmHg 68%
    02:00 +1°C° 0 mm 1 mps 624 mmHg 65%
    03:00 +1°C° 0 mm 1 mps 624 mmHg 61%
    04:00 +1°C° 0 mm 1 mps 624 mmHg 58%
    05:00 +1°C° 0 mm 1 mps 624 mmHg 55%
    06:00 -1°C° 0 mm 2 mps 624 mmHg 52%
    07:00 +2°C° 0 mm 1 mps 625 mmHg 52%
    08:00 +4°C° 0 mm 1 mps 625 mmHg 51%
    09:00 +5°C° 0 mm 1 mps 626 mmHg 50%
    10:00 +7°C° 0 mm 1 mps 626 mmHg 52%
    11:00 +8°C° 0 mm 1 mps 627 mmHg 55%
    12:00 +10°C° 0 mm 1 mps 627 mmHg 57%
    13:00 +9°C° 0.1 mm 1 mps 626 mmHg 64%
    14:00 +8°C° 0.1 mm 1 mps 626 mmHg 72%
    15:00 +7°C° 0.1 mm 1 mps 625 mmHg 79%
    16:00 +6°C° 0.5 mm 1 mps 625 mmHg 84%
    17:00 +5°C° 0.5 mm 2 mps 626 mmHg 88%
    18:00 +5°C° 0.5 mm 2 mps 626 mmHg 92%
    19:00 +4°C° 0.1 mm 2 mps 626 mmHg 93%
    20:00 +4°C° 0.1 mm 2 mps 626 mmHg 94%
    21:00 +4°C° 0.1 mm 2 mps 626 mmHg 95%
    22:00 +3°C° 0 mm 2 mps 626 mmHg 91%
    23:00 +2°C° 0 mm 2 mps 626 mmHg 86%

    9 December, Monday

    Time Temperature Precipitation Wind Pressure Humidity
    00:00 +1°C° 0 mm 2 mps 626 mmHg 81%
    01:00 +1°C° 0 mm 2 mps 625 mmHg 72%
    02:00 -1°C° 0 mm 2 mps 625 mmHg 63%
    03:00 -1°C° 0 mm 2 mps 625 mmHg 54%
    04:00 -1°C° 0 mm 2 mps 625 mmHg 55%
    05:00 -1°C° 0 mm 2 mps 625 mmHg 56%
    06:00 -1°C° 0 mm 2 mps 625 mmHg 57%
    07:00 +1°C° 0 mm 2 mps 626 mmHg 54%
    08:00 +2°C° 0 mm 2 mps 627 mmHg 50%
    09:00 +3°C° 0 mm 2 mps 628 mmHg 47%
    10:00 +4°C° 0 mm 2 mps 628 mmHg 44%
    11:00 +5°C° 0 mm 2 mps 628 mmHg 41%
    12:00 +7°C° 0 mm 2 mps 629 mmHg 39%
    13:00 +6°C° 0 mm 2 mps 629 mmHg 45%
    14:00 +5°C° 0 mm 2 mps 628 mmHg 51%
    15:00 +4°C° 0 mm 2 mps 628 mmHg 58%
    16:00 +3°C° 0 mm 2 mps 628 mmHg 59%
    17:00 +1°C° 0 mm 2 mps 627 mmHg 60%
    18:00 -1°C° 0 mm 2 mps 627 mmHg 62%
    19:00 -1°C° 0 mm 2 mps 627 mmHg 59%
    20:00 -1°C° 0 mm 2 mps 627 mmHg 57%
    21:00 -1°C° 0 mm 2 mps 628 mmHg 54%
    22:00 -1°C° 0 mm 2 mps 628 mmHg 53%
    23:00 -1°C° 0 mm 2 mps 628 mmHg 52%

    10 December, Tuesday

    Time Temperature Precipitation Wind Pressure Humidity
    00:00 -1°C° 0 mm 2 mps 628 mmHg 51%
    01:00 -1°C° 0 mm 2 mps 627 mmHg 49%
    02:00 -1°C° 0 mm 2 mps 627 mmHg 47%
    03:00 -1°C° 0 mm 2 mps 627 mmHg 46%
    04:00 +1°C° 0 mm 2 mps 627 mmHg 43%
    05:00 +1°C° 0 mm 2 mps 627 mmHg 40%
    06:00 +1°C° 0 mm 2 mps 626 mmHg 37%
    07:00 +3°C° 0 mm 1 mps 627 mmHg 36%
    08:00 +4°C° 0 mm 1 mps 627 mmHg 36%
    09:00 +5°C° 0 mm 1 mps 628 mmHg 35%
    10:00 +7°C° 0 mm 1 mps 628 mmHg 36%
    11:00 +8°C° 0 mm 1 mps 628 mmHg 37%
    12:00 +8°C° 0 mm 0 mps 628 mmHg 37%
    13:00 +8°C° 0 mm 0 mps 628 mmHg 43%
    14:00 +7°C° 0 mm 0 mps 627 mmHg 49%
    15:00 +6°C° 0 mm 0 mps 626 mmHg 55%
    16:00 +5°C° 0 mm 0 mps 625 mmHg 52%
    17:00 +5°C° 0 mm 1 mps 625 mmHg 49%
    18:00 +3°C° 0 mm 1 mps 624 mmHg 47%
    19:00 +3°C° 0 mm 1 mps 624 mmHg 45%
    20:00 +3°C° 0 mm 1 mps 624 mmHg 42%
    21:00 +3°C° 0 mm 1 mps 624 mmHg 40%
    22:00 +3°C° 0 mm 1 mps 623 mmHg 40%
    23:00 +3°C° 0 mm 1 mps 623 mmHg 39%
    Show more